TSC410 CYUL-CYYZ

Flight info

Callsign TSC410
Flight time 0h 54m
Altitude 34000
Route BOBKI DCT MELTI DCT TORNI RAGID6
Aircraft A21N/M-SDE2E3FGHIRWXY/LB1

Departure

Time 2026-05-04 18:12
Airport Montreal / Pierre Elliott Trudeau International Airport (CYUL)

Arrival

Time 2026-05-04 19:06
Airport Toronto Pearson International Airport (CYYZ)
Time Latitude Longitude Altitude Speed Heading
2026-05-04 17:41 45.45931 -73.75043 110 ft 0 kts 178°
2026-05-04 18:01 45.45938 -73.75044 108 ft 2 kts 178°
2026-05-04 18:01 45.45958 -73.75045 108 ft 3 kts 178°
2026-05-04 18:02 45.45993 -73.75054 109 ft 3 kts 141°
2026-05-04 18:02 45.46004 -73.75074 109 ft 3 kts 109°
2026-05-04 18:02 45.46008 -73.75101 109 ft 3 kts 92°
2026-05-04 18:02 45.46008 -73.75130 109 ft 3 kts 85°
2026-05-04 18:03 45.46007 -73.75144 109 ft 0 kts 85°
2026-05-04 18:05 45.46008 -73.75128 109 ft 3 kts 85°
2026-05-04 18:05 45.46010 -73.75075 109 ft 7 kts 98°
2026-05-04 18:05 45.45993 -73.74993 110 ft 10 kts 116°
2026-05-04 18:05 45.45986 -73.74877 110 ft 14 kts 94°
2026-05-04 18:06 45.45958 -73.74549 110 ft 19 kts 81°
2026-05-04 18:06 45.45998 -73.74365 109 ft 20 kts 84°
2026-05-04 18:06 45.46037 -73.74182 107 ft 21 kts 39°
2026-05-04 18:07 45.46153 -73.74041 110 ft 23 kts 45°
2026-05-04 18:07 45.46271 -73.73883 111 ft 24 kts 42°
2026-05-04 18:07 45.46395 -73.73714 112 ft 25 kts 44°
2026-05-04 18:07 45.46525 -73.73535 114 ft 27 kts 44°
2026-05-04 18:08 45.46667 -73.73351 115 ft 28 kts 40°
2026-05-04 18:08 45.46821 -73.73163 120 ft 30 kts 42°
2026-05-04 18:08 45.46972 -73.72953 120 ft 31 kts 44°
2026-05-04 18:08 45.47139 -73.72744 120 ft 33 kts 43°
2026-05-04 18:09 45.47484 -73.72286 123 ft 35 kts 43°
2026-05-04 18:09 45.47843 -73.71813 128 ft 11 kts 68°
2026-05-04 18:10 45.47835 -73.71785 127 ft 4 kts 153°
2026-05-04 18:10 45.47802 -73.71770 125 ft 6 kts 157°
2026-05-04 18:10 45.47755 -73.71730 123 ft 10 kts 140°
2026-05-04 18:10 45.47693 -73.71664 130 ft 13 kts 164°
2026-05-04 18:11 45.47615 -73.71726 126 ft 15 kts 224°
2026-05-04 18:11 45.47507 -73.71865 129 ft 43 kts 223°
2026-05-04 18:11 45.47096 -73.72406 123 ft 114 kts 223°
2026-05-04 18:11 45.46374 -73.73353 121 ft 164 kts 223°
2026-05-04 18:12 45.45571 -73.74414 824 ft 152 kts 224°
2026-05-04 18:12 45.44797 -73.75435 1511 ft 153 kts 227°
2026-05-04 18:12 45.44047 -73.76621 2017 ft 170 kts 239°
2026-05-04 18:12 45.43735 -73.78313 2484 ft 187 kts 266°
2026-05-04 18:13 45.43710 -73.80261 2997 ft 208 kts 267°
2026-05-04 18:13 45.43656 -73.82433 3521 ft 232 kts 266°
2026-05-04 18:13 45.43513 -73.87244 5184 ft 249 kts 267°
2026-05-04 18:14 45.43440 -73.89673 6144 ft 249 kts 268°
2026-05-04 18:14 45.43364 -73.92153 7072 ft 251 kts 268°
2026-05-04 18:14 45.43285 -73.94650 8008 ft 253 kts 268°
2026-05-04 18:15 45.43127 -73.99644 9930 ft 251 kts 269°
2026-05-04 18:15 45.42959 -74.04941 10744 ft 284 kts 269°
2026-05-04 18:15 45.42866 -74.07795 11357 ft 294 kts 269°
2026-05-04 18:16 45.42769 -74.10731 12137 ft 299 kts 269°
2026-05-04 18:16 45.42670 -74.13711 12955 ft 303 kts 269°
2026-05-04 18:16 45.42570 -74.16712 13717 ft 305 kts 269°
2026-05-04 18:17 45.42365 -74.22809 15099 ft 311 kts 269°
2026-05-04 18:17 45.42258 -74.25907 15797 ft 315 kts 269°
2026-05-04 18:17 45.42041 -74.32187 17111 ft 321 kts 269°
2026-05-04 18:18 45.41967 -74.34298 17536 ft 323 kts 269°
2026-05-04 18:18 45.41854 -74.37519 18156 ft 327 kts 269°
2026-05-04 18:18 45.41697 -74.41818 18884 ft 331 kts 268°
2026-05-04 18:18 45.41492 -74.44030 19249 ft 335 kts 262°
2026-05-04 18:19 45.40417 -74.50568 20316 ft 343 kts 261°
2026-05-04 18:19 45.39851 -74.53885 20839 ft 346 kts 261°
2026-05-04 18:19 45.39287 -74.57225 21360 ft 350 kts 261°
2026-05-04 18:20 45.38715 -74.60607 21880 ft 353 kts 261°
2026-05-04 18:20 45.38139 -74.64014 22392 ft 356 kts 261°
2026-05-04 18:20 45.37558 -74.67458 22892 ft 360 kts 262°
2026-05-04 18:20 45.36972 -74.70925 23374 ft 363 kts 262°
2026-05-04 18:21 45.36389 -74.74386 23771 ft 366 kts 262°
2026-05-04 18:21 45.35813 -74.77790 24182 ft 368 kts 261°
2026-05-04 18:21 45.35211 -74.81344 24606 ft 370 kts 262°
2026-05-04 18:21 45.34605 -74.84913 25004 ft 373 kts 261°
2026-05-04 18:22 45.33994 -74.88507 25416 ft 375 kts 261°
2026-05-04 18:22 45.33375 -74.92121 25836 ft 377 kts 261°
2026-05-04 18:22 45.32753 -74.95736 26250 ft 378 kts 261°
2026-05-04 18:22 45.32125 -74.99380 26661 ft 380 kts 261°
2026-05-04 18:23 45.31495 -75.03029 27054 ft 382 kts 261°
2026-05-04 18:23 45.30860 -75.06706 27445 ft 384 kts 261°
2026-05-04 18:23 45.30221 -75.10389 27828 ft 386 kts 261°
2026-05-04 18:23 45.29579 -75.14089 28209 ft 387 kts 262°
2026-05-04 18:24 45.28931 -75.17817 28560 ft 389 kts 261°
2026-05-04 18:24 45.28279 -75.21556 28939 ft 390 kts 261°
2026-05-04 18:24 45.27622 -75.25309 29305 ft 392 kts 261°
2026-05-04 18:24 45.26963 -75.29061 29655 ft 393 kts 261°
2026-05-04 18:25 45.26300 -75.32840 29950 ft 395 kts 261°
2026-05-04 18:25 45.25634 -75.36622 30248 ft 396 kts 261°
2026-05-04 18:25 45.24964 -75.40424 30537 ft 397 kts 261°
2026-05-04 18:25 45.24293 -75.44221 30858 ft 397 kts 261°
2026-05-04 18:26 45.23619 -75.48022 31216 ft 396 kts 262°
2026-05-04 18:26 45.22947 -75.51804 31604 ft 394 kts 262°
2026-05-04 18:26 45.22280 -75.55555 31971 ft 392 kts 262°
2026-05-04 18:26 45.21614 -75.59302 32324 ft 391 kts 262°
2026-05-04 18:27 45.20958 -75.62985 32646 ft 389 kts 262°
2026-05-04 18:27 45.20284 -75.66751 32989 ft 388 kts 262°
2026-05-04 18:27 45.19623 -75.70442 33301 ft 386 kts 263°
2026-05-04 18:27 45.18962 -75.74120 33596 ft 385 kts 263°
2026-05-04 18:28 45.18299 -75.77810 33715 ft 386 kts 263°
2026-05-04 18:28 45.17644 -75.81445 33720 ft 385 kts 263°
2026-05-04 18:28 45.16316 -75.88791 33688 ft 385 kts 263°
2026-05-04 18:29 45.14983 -75.96132 33690 ft 385 kts 263°
2026-05-04 18:29 45.13665 -76.03356 33691 ft 385 kts 263°
2026-05-04 18:30 45.11646 -76.14391 33671 ft 387 kts 263°
2026-05-04 18:31 45.10256 -76.21770 33690 ft 390 kts 260°
2026-05-04 18:31 45.07877 -76.28821 33692 ft 402 kts 249°
2026-05-04 18:32 45.05120 -76.35698 33690 ft 402 kts 249°
2026-05-04 18:32 45.02379 -76.42598 33694 ft 402 kts 249°
2026-05-04 18:33 44.99648 -76.49486 33689 ft 402 kts 249°
2026-05-04 18:33 44.96918 -76.56360 33677 ft 401 kts 249°
2026-05-04 18:34 44.94196 -76.63201 33691 ft 402 kts 249°
2026-05-04 18:34 44.91452 -76.70077 33701 ft 402 kts 249°
2026-05-04 18:35 44.88704 -76.76950 33704 ft 403 kts 249°
2026-05-04 18:35 44.85948 -76.83823 33694 ft 402 kts 249°
2026-05-04 18:36 44.83413 -76.90128 33700 ft 402 kts 249°
2026-05-04 18:36 44.80649 -76.96988 33679 ft 404 kts 249°
2026-05-04 18:37 44.77880 -77.03858 33687 ft 403 kts 249°
2026-05-04 18:37 44.75108 -77.10713 33694 ft 403 kts 249°
2026-05-04 18:38 44.72336 -77.17553 33697 ft 403 kts 249°
2026-05-04 18:38 44.69561 -77.24387 33693 ft 403 kts 249°
2026-05-04 18:39 44.66779 -77.31217 33693 ft 403 kts 249°
2026-05-04 18:39 44.63995 -77.38044 33686 ft 403 kts 248°
2026-05-04 18:40 44.61201 -77.44871 33688 ft 403 kts 249°
2026-05-04 18:40 44.58409 -77.51674 33680 ft 400 kts 248°
2026-05-04 18:41 44.55633 -77.58424 33685 ft 400 kts 248°
2026-05-04 18:41 44.54261 -77.61756 33289 ft 399 kts 248°
2026-05-04 18:41 44.52853 -77.65171 32190 ft 400 kts 247°
2026-05-04 18:41 44.51478 -77.68500 31190 ft 398 kts 246°
2026-05-04 18:42 44.50081 -77.71868 30361 ft 392 kts 246°
2026-05-04 18:42 44.48739 -77.75104 29586 ft 385 kts 245°
2026-05-04 18:42 44.47402 -77.78323 28731 ft 378 kts 245°
2026-05-04 18:42 44.46089 -77.81484 27893 ft 372 kts 245°
2026-05-04 18:43 44.44802 -77.84581 27074 ft 366 kts 245°
2026-05-04 18:43 44.43530 -77.87639 26259 ft 361 kts 245°
2026-05-04 18:43 44.42273 -77.90654 25457 ft 356 kts 245°
2026-05-04 18:43 44.41033 -77.93631 24678 ft 352 kts 245°
2026-05-04 18:44 44.39811 -77.96559 23931 ft 347 kts 244°
2026-05-04 18:44 44.39009 -77.98478 23455 ft 344 kts 244°
2026-05-04 18:44 44.37407 -78.02305 22461 ft 335 kts 244°
2026-05-04 18:44 44.36248 -78.05068 21914 ft 326 kts 244°
2026-05-04 18:45 44.35112 -78.07780 21470 ft 320 kts 244°
2026-05-04 18:45 44.33995 -78.10439 21021 ft 316 kts 244°
2026-05-04 18:45 44.32890 -78.13067 20582 ft 311 kts 244°
2026-05-04 18:45 44.32100 -78.14945 20272 ft 308 kts 244°
2026-05-04 18:46 44.31025 -78.17502 19866 ft 304 kts 244°
2026-05-04 18:46 44.29955 -78.20041 19471 ft 302 kts 243°
2026-05-04 18:46 44.28897 -78.22551 19085 ft 300 kts 243°
2026-05-04 18:46 44.27841 -78.25054 18697 ft 298 kts 243°
2026-05-04 18:47 44.26790 -78.27542 18309 ft 297 kts 243°
2026-05-04 18:47 44.25746 -78.30011 17918 ft 295 kts 243°
2026-05-04 18:47 44.24705 -78.32471 17501 ft 293 kts 243°
2026-05-04 18:47 44.23674 -78.34903 17110 ft 291 kts 243°
2026-05-04 18:48 44.22969 -78.36565 16856 ft 289 kts 243°
2026-05-04 18:48 44.21947 -78.38976 16490 ft 287 kts 243°
2026-05-04 18:48 44.20934 -78.41362 16128 ft 286 kts 243°
2026-05-04 18:48 44.19921 -78.43748 15786 ft 285 kts 243°
2026-05-04 18:49 44.18911 -78.46121 15456 ft 284 kts 243°
2026-05-04 18:49 44.17901 -78.48494 15174 ft 286 kts 242°
2026-05-04 18:49 44.16888 -78.50872 14916 ft 284 kts 242°
2026-05-04 18:49 44.15891 -78.53208 14664 ft 283 kts 242°
2026-05-04 18:50 44.14889 -78.55557 14363 ft 282 kts 242°
2026-05-04 18:50 44.13884 -78.57908 14034 ft 282 kts 242°
2026-05-04 18:50 44.12883 -78.60252 13700 ft 282 kts 242°
2026-05-04 18:50 44.11878 -78.62601 13384 ft 279 kts 242°
2026-05-04 18:51 44.10890 -78.64908 13063 ft 276 kts 242°
2026-05-04 18:51 44.09908 -78.67201 12738 ft 275 kts 242°
2026-05-04 18:51 44.08928 -78.69486 12375 ft 275 kts 242°
2026-05-04 18:51 44.07950 -78.71766 12009 ft 275 kts 242°
2026-05-04 18:52 44.06968 -78.74051 11650 ft 275 kts 241°
2026-05-04 18:52 44.06288 -78.75632 11408 ft 275 kts 241°
2026-05-04 18:52 44.05306 -78.77911 11040 ft 274 kts 241°
2026-05-04 18:52 44.04310 -78.80176 10695 ft 274 kts 237°
2026-05-04 18:53 44.03097 -78.82223 10350 ft 276 kts 230°
2026-05-04 18:53 44.01792 -78.84173 10041 ft 272 kts 230°
2026-05-04 18:53 44.00518 -78.86064 9746 ft 265 kts 230°
2026-05-04 18:53 43.99267 -78.87930 9359 ft 265 kts 230°
2026-05-04 18:54 43.98010 -78.89809 8981 ft 265 kts 230°
2026-05-04 18:54 43.96768 -78.91667 8595 ft 261 kts 230°
2026-05-04 18:54 43.95542 -78.93501 8218 ft 257 kts 230°
2026-05-04 18:54 43.94352 -78.95283 7875 ft 252 kts 230°
2026-05-04 18:55 43.93153 -78.97075 7534 ft 250 kts 230°
2026-05-04 18:55 43.90843 -79.00528 7054 ft 237 kts 230°
2026-05-04 18:55 43.89753 -79.02152 6990 ft 221 kts 230°
2026-05-04 18:56 43.88729 -79.03683 6995 ft 216 kts 230°
2026-05-04 18:56 43.87744 -79.05257 7005 ft 215 kts 238°
2026-05-04 18:56 43.87171 -79.07135 7002 ft 213 kts 260°
2026-05-04 18:56 43.87224 -79.09176 6897 ft 215 kts 276°
2026-05-04 18:57 43.87515 -79.11198 6725 ft 214 kts 277°
2026-05-04 18:57 43.87805 -79.13217 6547 ft 212 kts 276°
2026-05-04 18:57 43.88072 -79.15219 6370 ft 210 kts 276°
2026-05-04 18:57 43.88329 -79.17205 6195 ft 209 kts 276°
2026-05-04 18:58 43.88581 -79.19180 6018 ft 207 kts 276°
2026-05-04 18:58 43.88829 -79.21147 5840 ft 207 kts 276°
2026-05-04 18:58 43.89077 -79.23112 5663 ft 207 kts 275°
2026-05-04 18:58 43.89323 -79.25078 5490 ft 208 kts 275°
2026-05-04 18:59 43.89570 -79.27055 5318 ft 208 kts 275°
2026-05-04 18:59 43.89817 -79.29028 5137 ft 208 kts 275°
2026-05-04 18:59 43.90056 -79.31006 4954 ft 207 kts 272°
2026-05-04 18:59 43.90006 -79.32963 4771 ft 203 kts 253°
2026-05-04 19:00 43.89340 -79.34670 4597 ft 203 kts 232°
2026-05-04 19:00 43.88356 -79.36079 4441 ft 203 kts 228°
2026-05-04 19:00 43.87357 -79.37457 4258 ft 202 kts 228°
2026-05-04 19:00 43.86357 -79.38834 4083 ft 203 kts 228°
2026-05-04 19:01 43.85380 -79.40241 3894 ft 203 kts 229°
2026-05-04 19:01 43.84406 -79.41658 3722 ft 203 kts 228°
2026-05-04 19:01 43.83439 -79.43073 3539 ft 202 kts 227°
2026-05-04 19:01 43.82462 -79.44497 3363 ft 208 kts 226°
2026-05-04 19:02 43.81470 -79.45944 3179 ft 202 kts 226°
2026-05-04 19:02 43.80531 -79.47315 3016 ft 190 kts 226°
2026-05-04 19:02 43.79640 -79.48615 2950 ft 188 kts 225°
2026-05-04 19:02 43.78736 -79.49932 2964 ft 188 kts 226°
2026-05-04 19:03 43.77838 -79.51241 2945 ft 188 kts 225°
2026-05-04 19:03 43.76937 -79.52556 2754 ft 189 kts 225°
2026-05-04 19:03 43.76034 -79.53871 2515 ft 187 kts 225°
2026-05-04 19:03 43.75150 -79.55157 2271 ft 180 kts 226°
2026-05-04 19:04 43.74333 -79.56348 2093 ft 161 kts 225°
2026-05-04 19:04 43.73587 -79.57432 1845 ft 151 kts 225°
2026-05-04 19:04 43.72878 -79.58464 1608 ft 144 kts 225°
2026-05-04 19:04 43.72207 -79.59439 1365 ft 136 kts 226°
2026-05-04 19:05 43.71572 -79.60394 1187 ft 134 kts 227°
2026-05-04 19:05 43.70941 -79.61362 966 ft 139 kts 226°
2026-05-04 19:05 43.70289 -79.62279 852 ft 130 kts 225°
2026-05-04 19:05 43.69648 -79.63178 645 ft 135 kts 225°
2026-05-04 19:06 43.69024 -79.64079 586 ft 124 kts 227°
2026-05-04 19:06 43.68649 -79.64627 572 ft 108 kts 227°
2026-05-04 19:06 43.68172 -79.65328 571 ft 43 kts 220°
2026-05-04 19:06 43.68059 -79.65431 569 ft 5 kts 199°
2026-05-04 19:07 43.68052 -79.65434 569 ft 8 kts 199°
2026-05-04 19:07 43.67903 -79.65495 570 ft 18 kts 186°
2026-05-04 19:07 43.67895 -79.65495 569 ft 2 kts 177°
2026-05-04 19:07 43.67848 -79.65481 573 ft 11 kts 138°
2026-05-04 19:08 43.67843 -79.65378 571 ft 13 kts 51°
2026-05-04 19:08 43.67911 -79.65281 570 ft 15 kts 45°
2026-05-04 19:08 43.67989 -79.65173 569 ft 17 kts 45°
2026-05-04 19:08 43.68072 -79.65048 577 ft 19 kts 49°
2026-05-04 19:09 43.68165 -79.64910 580 ft 20 kts 46°
2026-05-04 19:09 43.68268 -79.64764 577 ft 22 kts 47°
2026-05-04 19:09 43.68375 -79.64607 572 ft 23 kts 46°
2026-05-04 19:09 43.68489 -79.64443 570 ft 24 kts 46°
2026-05-04 19:10 43.68609 -79.64272 574 ft 26 kts 46°
2026-05-04 19:10 43.68693 -79.64152 572 ft 27 kts 46°
2026-05-04 19:10 43.68869 -79.63891 578 ft 29 kts 46°
2026-05-04 19:10 43.69010 -79.63690 574 ft 24 kts 52°
2026-05-04 19:11 43.68982 -79.63576 567 ft 15 kts 131°
2026-05-04 19:11 43.68910 -79.63457 571 ft 17 kts 137°
2026-05-04 19:11 43.68818 -79.63342 573 ft 18 kts 137°
2026-05-04 19:11 43.68723 -79.63214 576 ft 20 kts 134°
2026-05-04 19:12 43.68624 -79.63073 567 ft 21 kts 134°
2026-05-04 19:12 43.68425 -79.62757 568 ft 24 kts 71°
2026-05-04 19:12 43.68543 -79.62619 570 ft 18 kts 19°
2026-05-04 19:13 43.68596 -79.62618 570 ft 5 kts 330°
2026-05-04 19:13 43.68621 -79.62660 567 ft 6 kts 303°
2026-05-04 19:13 43.68622 -79.62664 571 ft 0 kts 303°